Temperature
18 18 18 17 17 17 16 15 14 13 13 13 13 13 13 13 13 13 13 13 13 13 13 12 12 12 12 12 13 13 13 13 13 13 14 14 14 14 15 15 15 15 15 16
19 19 19 18 17 17 16 16 15 15 14 15 14 14 14 14 14 14 14 14 14 13 13 13 13 13 12 12 12 12 13 13 13 13 13 13 14 14 14 15 15 15 15 15
20 19 19 18 18 17 16 16 16 15 15 16 15 15 15 15 15 15 14 14 14 14 14 14 13 13 13 12 12 12 12 12 12 12 13 13 13 13 13 14 14 14 14 14
21 20 18 17 18 18 17 17 17 16 17 16 16 16 15 15 15 15 15 15 15 15 14 14 14 14 13 13 12 12 12 12 12 12 12 12 13 13 13 13 13 13 13 13
21 20 18 17 18 18 18 17 18 17 17 17 17 16 16 16 15 15 15 15 15 15 15 14 14 14 13 13 12 12 12 12 12 12 12 12 12 12 12 12 12 12 12 12
20 20 19 18 19 18 18 17 18 18 17 17 17 16 16 16 15 15 15 15 15 15 15 14 14 14 13 13 12 12 12 11 11 12 12 12 12 12 12 12 12 12 12 12
20 20 19 19 18 18 17 17 18 17 17 17 17 16 16 16 15 15 15 15 15 15 15 14 14 14 13 13 12 12 12 12 12 12 12 12 12 11 11 11 11 11 11 11
20 20 18 18 18 18 18 18 18 17 17 16 16 16 16 16 15 15 15 15 15 15 15 15 14 14 13 13 13 12 12 12 12 12 12 11 11 11 11 11 11 11 11 11
20 18 18 18 18 18 18 18 17 17 16 16 16 16 16 16 15 15 15 15 15 15 15 15 15 14 14 13 13 13 12 12 12 12 11 11 11 11 11 11 11 10 10 10
20 19 18 17 18 17 17 17 16 16 16 16 16 16 16 16 15 15 15 15 15 15 15 15 15 15 14 14 14 14 13 13 12 12 11 11 11 11 11 11 11 11 10 10
20 20 18 17 17 17 16 16 16 16 15 15 15 15 15 15 15 15 15 15 15 15 15 15 15 15 15 14 14 14 14 13 12 12 11 11 11 11 11 11 10 10 10 10
20 20 19 17 17 17 16 16 16 16 16 15 15 15 15 15 15 15 15 15 15 15 15 15 15 15 15 14 14 14 13 13 12 12 11 11 11 11 10 10 10 10 10 10
20 20 19 18 17 17 16 16 16 16 15 15 15 15 15 15 15 15 15 15 15 15 15 15 15 15 15 14 14 14 13 13 12 12 12 11 11 11 10 10 10 10 10 10
19 19 18 17 17 16 16 16 16 16 15 15 15 14 14 14 15 14 14 15 15 15 15 15 15 15 15 15 14 14 13 13 12 12 12 11 11 11 11 10 10 10 10 10
18 18 18 17 17 16 16 16 16 16 15 15 15 14 14 14 14 14 14 15 15 15 15 15 15 15 15 15 14 14 13 13 12 12 12 12 11 11 11 11 10 10 10 10
17 17 17 17 16 16 16 16 16 16 16 15 15 14 14 14 14 14 14 15 15 15 15 15 15 15 15 15 14 14 13 13 13 12 12 12 12 11 11 11 10 10 10 10
17 17 17 17 16 16 16 16 16 16 16 15 15 14 14 14 14 14 14 14 14 14 14 14 15 15 15 15 14 14 14 13 13 13 12 12 12 12 11 11 11 10 10 10
17 17 17 16 16 16 16 16 15 16 16 15 15 14 14 14 14 14 14 14 14 14 14 14 15 15 15 15 14 14 14 14 13 13 12 12 12 12 12 11 11 10 10 10
17 17 17 17 16 16 16 15 15 15 15 15 14 14 14 14 14 14 14 14 14 14 14 14 15 15 14 14 15 14 14 14 13 13 13 12 12 12 12 11 11 11 10 10
17 17 17 16 16 16 16 15 15 15 14 14 14 13 13 13 13 13 13 13 13 13 14 14 15 15 14 14 15 14 14 14 13 13 13 12 12 12 12 12 11 11 10 10
16 16 16 16 16 16 15 15 15 14 14 14 13 13 13 13 13 13 13 13 13 13 14 14 14 14 14 14 15 14 14 14 14 13 13 13 12 12 12 12 11 11 10 10
16 16 16 16 15 15 15 14 14 14 13 13 13 12 13 13 13 13 13 13 13 13 13 14 13 14 14 14 15 14 14 14 13 13 13 13 12 12 12 12 11 11 11 10
15 16 15 15 15 15 14 14 14 14 13 13 13 12 12 12 13 13 13 13 12 13 13 13 14 14 14 15 15 14 14 14 13 13 13 13 12 12 12 12 11 11 11 10
15 15 15 15 15 15 14 14 14 14 13 13 12 12 12 12 12 13 13 13 13 13 13 13 14 14 14 14 14 14 14 14 14 13 13 13 12 12 12 12 11 11 11 10
14 15 15 15 15 15 15 15 14 14 13 13 12 12 13 13 13 13 13 12 13 13 13 13 13 14 14 14 14 14 14 14 14 14 13 13 13 12 12 12 11 11 11 11
13 14 14 14 14 14 14 14 14 14 13 13 13 13 13 13 13 13 13 13 13 13 13 13 13 13 13 13 13 13 14 14 14 14 14 13 13 13 12 12 11 11 11 11
12 13 13 13 13 14 14 14 14 13 13 13 13 13 13 12 12 13 13 13 13 13 13 13 13 12 12 12 13 13 13 13 13 13 13 13 13 13 13 12 12 12 11 11
Wind_Speed
8 5 5 7 8 10 10 6 4 3 4 6 8 9 9 10 9 10 10 10 9 8 8 7 7 7 7 6 6 6 7 7 7 6 5 5 6 7 7 7 7 8 7 6
5 4 3 5 6 6 6 6 4 4 5 4 4 6 8 10 10 10 10 10 9 7 7 7 7 7 6 6 5 6 7 7 7 7 8 8 8 8 8 8 9 9 9 8
3 5 3 1 4 4 5 4 4 5 4 4 4 6 8 9 10 10 10 10 9 8 7 7 6 6 7 7 7 8 8 8 8 8 8 9 9 8 8 8 8 8 8 7
2 4 0 6 6 5 3 3 2 2 2 2 2 3 5 7 8 9 10 9 9 8 7 8 7 6 7 8 8 8 8 8 9 9 9 8 8 8 8 7 7 7 7 7
3 2 5 6 6 5 2 3 2 2 3 3 1 3 8 9 8 8 8 8 7 8 8 8 8 8 8 9 8 9 8 8 8 8 8 8 8 8 7 6 6 6 6 7
4 5 2 7 9 5 2 3 4 2 4 7 6 5 7 8 8 7 7 7 7 7 8 8 7 7 8 8 8 9 8 8 7 7 7 8 7 6 6 5 6 5 5 6
5 3 5 9 9 5 2 5 6 4 5 7 9 7 5 7 7 6 5 6 7 6 6 6 6 6 7 7 7 6 6 6 6 7 6 7 6 6 6 5 5 6 5 5
2 2 3 11 8 3 6 8 6 6 6 6 5 5 6 6 6 6 6 6 6 5 5 4 4 5 6 5 4 4 4 5 5 6 7 7 6 7 6 7 7 7 6 6
2 3 8 9 5 4 6 7 6 7 5 4 4 5 6 6 6 6 6 5 5 5 5 4 4 4 4 2 2 2 3 3 4 6 6 7 7 8 7 7 6 6 6 6
2 7 10 8 7 6 4 5 7 5 4 3 4 5 5 5 6 6 6 5 5 5 6 5 3 2 3 2 2 1 3 3 5 6 6 7 6 7 7 7 7 7 7 7
5 6 9 9 8 9 7 6 6 5 4 3 3 4 5 5 6 5 5 5 5 5 5 7 3 3 3 3 5 2 3 4 5 5 5 6 6 6 6 6 5 5 5 6
3 7 7 10 11 11 10 8 7 5 4 3 3 4 5 5 5 5 6 6 6 5 5 6 5 4 4 3 5 4 5 5 4 3 4 5 5 5 9 8 8 10 10 7
1 4 3 10 14 13 11 10 7 5 3 2 2 3 4 4 4 5 6 7 7 7 5 5 5 5 4 3 4 4 5 4 4 4 3 3 4 5 4 3 6 9 9 10
4 5 6 8 11 12 11 10 8 7 5 3 1 2 3 4 5 5 6 6 7 7 5 5 5 5 5 3 2 2 5 4 3 3 3 3 3 3 3 4 3 2 4 6
6 5 6 8 10 11 10 9 8 7 6 5 3 1 2 3 5 5 5 5 7 6 6 5 5 6 5 4 3 3 4 3 3 2 1 2 2 3 3 4 3 3 2 1
9 7 7 9 10 11 10 10 9 8 7 5 3 1 1 2 4 4 4 5 6 6 5 5 5 5 5 4 2 3 4 3 3 1 1 2 2 2 3 3 3 4 4 4
12 11 10 10 11 11 10 9 8 7 7 6 4 2 2 4 4 3 4 5 6 5 3 5 6 5 5 5 2 2 4 4 1 3 1 2 2 2 3 3 4 4 4 4
11 11 10 10 10 10 10 10 8 7 4 4 4 2 4 4 4 4 5 6 6 4 4 6 6 7 7 4 3 2 2 5 4 2 1 2 2 1 3 3 4 5 4 3
10 11 11 10 10 9 9 8 7 6 5 4 4 4 5 4 3 4 5 5 5 4 5 6 9 9 5 3 3 3 2 2 3 3 3 3 2 1 2 3 3 4 5 4
9 10 10 10 9 8 8 7 7 6 5 5 5 5 5 4 3 3 4 5 2 3 5 6 8 8 4 4 2 4 3 2 2 3 3 3 3 2 2 3 3 3 4 4
8 9 10 9 8 7 6 6 6 6 5 5 4 5 5 4 2 3 4 4 1 5 4 8 6 4 5 4 3 6 4 2 3 3 4 4 3 2 2 3 3 4 4 4
7 8 9 9 8 8 7 6 6 7 7 6 6 6 5 4 4 4 5 3 2 4 2 5 3 4 5 6 5 6 5 3 2 2 2 3 3 2 2 3 3 4 4 5
7 8 9 9 10 9 9 8 8 7 7 7 7 7 6 5 2 2 4 1 3 3 2 4 3 4 7 6 6 6 5 5 4 3 4 3 3 3 3 3 3 4 5 5
4 6 7 9 10 10 10 9 8 7 7 7 6 6 5 4 4 5 5 4 5 2 4 5 6 7 7 5 6 6 5 5 4 3 3 4 3 3 3 4 4 4 5 6
4 4 5 7 8 7 7 8 8 8 7 6 7 7 6 5 5 4 3 2 4 5 5 6 8 9 7 6 6 6 4 3 3 3 3 3 3 2 2 3 4 4 5 5
5 4 3 4 4 4 4 4 5 5 6 6 6 5 6 5 6 5 4 5 7 7 5 5 6 7 6 5 4 5 4 1 4 4 4 4 4 5 4 3 4 4 5 5
6 4 2 3 4 3 3 3 4 5 6 6 6 6 6 6 6 6 7 6 5 5 5 5 5 4 4 4 4 5 5 4 3 5 5 5 5 4 5 6 5 4 4 4
Wind_Direction
89 89 70 61 50 49 51 51 57 40 24 1 357 359 0 7 11 18 23 25 27 23 19 25 28 30 32 32 31 35 40 40 33 24 20 12 8 5 4 2 0 2 4 8
140 136 108 80 71 62 60 53 65 56 38 9 359 6 9 12 15 21 23 26 28 28 24 29 33 34 32 35 38 42 40 35 28 29 29 25 24 22 10 12 13 12 10 12
153 158 213 106 92 82 73 61 47 44 27 8 14 24 20 15 20 24 24 23 19 26 29 30 41 51 46 41 43 42 44 43 35 33 31 30 29 23 16 22 22 15 12 12
253 194 303 100 116 123 115 97 75 42 19 5 356 63 49 30 25 23 20 17 12 21 35 26 28 52 64 54 47 42 40 45 41 35 29 28 30 29 25 25 24 22 17 13
305 312 127 147 164 172 171 122 118 35 20 351 252 124 58 42 35 28 17 9 11 18 31 32 28 38 53 54 47 39 35 40 42 36 29 28 29 27 25 25 27 26 20 18
289 304 36 127 138 153 208 155 133 82 33 18 41 69 39 33 36 32 24 10 12 21 25 25 29 36 44 51 47 39 30 31 36 38 35 29 27 28 26 27 26 26 27 26
278 301 96 122 135 170 226 125 129 102 64 48 47 46 29 28 33 28 32 18 10 16 24 19 23 42 46 43 46 44 32 28 32 31 40 39 23 23 25 22 25 27 26 29
274 270 143 142 158 192 105 119 129 102 74 61 48 43 33 31 33 23 24 26 10 360 359 16 27 38 57 47 43 55 42 31 45 45 35 33 28 26 23 19 27 25 22 24
7 72 109 150 160 112 126 137 120 102 86 65 47 42 31 24 30 21 17 23 358 343 347 8 40 39 45 41 15 75 65 37 54 66 61 39 32 30 24 23 26 25 19 21
255 161 161 178 157 147 164 125 113 108 102 64 35 33 25 20 29 19 9 5 348 357 5 351 5 47 41 11 323 132 108 75 69 65 67 59 41 37 39 27 20 18 18 19
240 148 151 183 181 170 170 150 143 137 113 79 41 28 11 20 28 9 353 352 5 17 347 322 340 58 66 12 334 6 87 81 80 81 86 82 69 44 43 53 38 20 11 23
238 172 173 185 185 176 170 173 167 156 135 109 71 34 11 17 14 1 356 0 5 359 335 332 356 34 73 40 342 17 63 62 63 78 95 116 116 91 51 56 53 52 46 49
37 121 139 152 171 175 174 177 169 158 145 114 77 48 14 2 6 6 4 6 353 336 335 348 0 22 51 51 5 22 64 61 59 46 56 96 130 139 131 80 53 50 50 53
120 150 139 149 166 172 178 175 169 168 164 155 93 26 3 356 5 5 2 357 335 325 348 7 15 29 31 27 9 41 87 83 77 68 45 56 67 89 122 141 134 100 62 53
171 188 162 159 163 173 178 176 178 187 183 171 160 219 358 359 351 342 349 351 332 338 6 10 28 34 17 358 355 42 65 67 64 65 47 80 82 77 79 96 104 111 116 64
182 193 170 169 173 180 185 188 194 200 190 178 181 203 340 328 309 313 350 350 333 341 351 5 34 25 355 334 3 83 90 69 20 326 251 131 119 107 96 97 89 81 68 39
185 193 188 184 184 188 194 199 205 210 196 183 184 187 284 289 296 332 352 335 316 314 353 34 36 360 324 305 289 176 149 144 213 286 311 74 90 109 112 107 101 93 86 52
195 195 195 193 191 192 196 202 208 216 209 176 155 200 258 278 308 336 332 322 316 324 45 45 22 330 301 306 327 336 165 165 184 191 116 68 23 83 115 120 120 123 132 125
195 192 195 198 194 192 195 199 199 203 203 186 186 221 247 270 294 316 322 320 321 342 24 20 346 313 297 76 16 305 283 173 166 157 135 128 246 244 147 130 128 129 136 136
199 192 194 196 193 190 190 190 191 193 193 189 198 221 243 254 264 298 307 305 318 53 8 349 321 303 325 85 15 295 271 209 190 170 161 174 208 202 168 143 141 137 136 136
206 198 195 195 188 184 187 188 182 183 185 187 208 232 243 254 266 272 278 288 39 64 349 316 299 325 13 11 308 289 283 237 209 200 177 181 207 200 180 167 157 149 142 139
213 205 197 194 186 186 188 197 190 186 190 191 199 224 241 247 255 259 259 238 137 97 329 305 338 31 356 330 288 277 275 265 240 209 178 180 192 202 201 176 156 145 136 136
216 210 200 197 196 197 194 201 201 188 189 196 203 212 222 221 232 261 276 267 101 93 309 295 334 321 320 301 276 264 244 233 229 212 188 192 198 197 199 176 154 146 146 148
238 217 206 201 202 205 204 201 201 188 182 191 208 214 217 215 223 227 231 200 176 190 266 271 267 278 289 275 269 266 249 217 201 208 199 186 195 199 187 168 161 156 156 156
303 262 223 209 211 211 213 202 194 190 186 191 202 205 211 214 218 234 260 249 186 207 253 267 260 263 265 264 266 269 265 229 180 175 187 184 185 186 194 176 173 170 165 165
319 307 298 262 235 213 207 200 193 185 185 191 203 208 207 202 202 205 220 245 246 233 239 256 257 255 256 268 290 299 296 217 168 175 194 201 197 186 198 209 195 180 174 174
314 301 295 288 281 253 231 214 204 199 193 194 202 206 209 206 199 201 210 222 234 231 232 242 254 263 272 274 274 279 280 269 221 189 195 202 205 197 193 196 193 185 174 166
Height
1552 1552 1553 1556 1557 1557 1559 1562 1568 1569 1567 1563 1560 1557 1554 1550 1545 1542 1538 1535 1532 1528 1525 1523 1520 1518 1516 1514 1512 1511 1510 1509 1509 1509 1509 1509 1509 1509 1509 1509 1509 1509 1510 1510
1551 1551 1552 1555 1557 1558 1560 1561 1564 1564 1564 1561 1560 1558 1555 1551 1548 1545 1543 1540 1537 1534 1531 1528 1525 1523 1520 1519 1517 1515 1514 1513 1512 1511 1511 1510 1509 1509 1509 1509 1508 1508 1509 1509
1547 1548 1551 1556 1557 1559 1560 1561 1562 1564 1564 1560 1559 1558 1557 1554 1551 1549 1546 1544 1541 1538 1535 1533 1530 1528 1525 1524 1522 1520 1518 1516 1515 1513 1512 1511 1510 1510 1509 1509 1508 1508 1508 1508
1542 1547 1558 1560 1555 1557 1559 1560 1560 1560 1560 1560 1559 1559 1558 1556 1554 1552 1549 1547 1544 1541 1539 1537 1535 1532 1530 1528 1526 1524 1522 1520 1518 1516 1515 1514 1512 1511 1510 1509 1509 1508 1508 1507
1542 1545 1552 1556 1554 1556 1557 1559 1559 1559 1559 1558 1557 1558 1558 1557 1556 1554 1552 1550 1548 1545 1543 1541 1538 1536 1534 1532 1530 1528 1526 1524 1522 1520 1518 1516 1515 1514 1512 1511 1510 1509 1508 1507
1545 1547 1551 1552 1551 1554 1558 1559 1559 1559 1559 1558 1557 1559 1561 1559 1558 1556 1554 1552 1550 1548 1546 1544 1542 1540 1538 1535 1533 1531 1529 1527 1525 1523 1521 1519 1518 1516 1515 1513 1512 1510 1510 1509
1545 1545 1547 1549 1552 1556 1562 1560 1558 1559 1560 1560 1560 1562 1562 1560 1559 1557 1556 1554 1552 1550 1548 1546 1544 1542 1540 1538 1536 1534 1532 1530 1528 1526 1524 1522 1520 1519 1517 1515 1514 1513 1512 1511
1543 1547 1553 1549 1552 1554 1555 1556 1558 1559 1561 1562 1562 1562 1562 1561 1560 1558 1557 1555 1553 1552 1550 1548 1546 1544 1542 1540 1539 1537 1535 1533 1531 1529 1527 1525 1523 1521 1519 1518 1517 1516 1514 1513
1540 1548 1546 1548 1550 1552 1554 1556 1558 1560 1562 1562 1563 1563 1562 1561 1560 1559 1557 1556 1554 1553 1551 1549 1547 1546 1544 1542 1540 1539 1537 1535 1534 1532 1529 1527 1525 1523 1522 1520 1519 1518 1517 1516
1540 1542 1545 1548 1550 1552 1554 1556 1558 1560 1562 1562 1563 1563 1562 1561 1560 1559 1558 1556 1555 1553 1551 1550 1548 1546 1545 1543 1542 1540 1539 1537 1536 1534 1532 1530 1527 1526 1524 1523 1521 1520 1519 1518
1538 1539 1544 1547 1549 1551 1554 1556 1558 1560 1561 1562 1562 1562 1562 1561 1560 1559 1558 1556 1555 1553 1551 1550 1549 1547 1545 1544 1543 1542 1541 1539 1538 1536 1535 1533 1531 1529 1528 1526 1525 1524 1522 1521
1536 1535 1539 1543 1546 1549 1553 1555 1557 1559 1561 1561 1562 1562 1562 1561 1560 1559 1558 1556 1555 1553 1551 1550 1549 1548 1546 1545 1544 1543 1542 1541 1540 1538 1537 1535 1534 1533 1531 1530 1529 1527 1526 1524
1533 1534 1536 1539 1543 1547 1551 1554 1556 1558 1560 1561 1561 1561 1561 1561 1560 1559 1557 1556 1554 1553 1552 1550 1549 1548 1546 1545 1544 1543 1542 1542 1541 1540 1539 1538 1537 1535 1534 1534 1532 1531 1529 1528
1533 1535 1537 1539 1542 1546 1549 1552 1555 1557 1558 1559 1560 1560 1560 1560 1559 1558 1557 1555 1554 1553 1552 1550 1549 1548 1546 1545 1544 1544 1543 1542 1542 1541 1541 1540 1539 1538 1537 1536 1535 1534 1532 1531
1533 1535 1537 1539 1542 1545 1548 1550 1553 1555 1557 1558 1558 1559 1559 1559 1558 1557 1556 1555 1553 1553 1552 1550 1549 1547 1546 1545 1545 1544 1544 1543 1542 1542 1542 1541 1541 1540 1539 1538 1537 1536 1534 1533
1531 1534 1536 1538 1540 1543 1546 1548 1551 1553 1555 1556 1557 1557 1557 1557 1557 1556 1555 1554 1553 1552 1551 1550 1548 1547 1546 1545 1545 1544 1544 1543 1543 1543 1543 1543 1542 1541 1541 1540 1539 1538 1536 1535
1528 1531 1533 1536 1538 1541 1544 1546 1548 1551 1552 1553 1555 1555 1555 1556 1556 1555 1554 1553 1552 1552 1551 1549 1547 1546 1545 1545 1545 1544 1544 1543 1543 1543 1543 1543 1543 1543 1542 1541 1540 1539 1538 1537
1525 1528 1531 1534 1536 1539 1541 1543 1546 1548 1549 1551 1552 1552 1553 1554 1554 1553 1552 1551 1551 1551 1549 1547 1546 1545 1545 1544 1544 1544 1544 1543 1543 1544 1543 1543 1543 1543 1543 1542 1541 1540 1539 1537
1523 1526 1528 1531 1533 1536 1538 1540 1543 1545 1546 1548 1548 1549 1550 1551 1551 1551 1550 1549 1549 1548 1547 1545 1545 1544 1544 1543 1543 1543 1544 1544 1544 1543 1543 1543 1543 1543 1543 1542 1541 1540 1539 1538
1520 1523 1526 1528 1531 1533 1535 1537 1539 1541 1543 1544 1545 1546 1547 1548 1548 1548 1547 1547 1547 1545 1544 1544 1543 1542 1543 1542 1542 1542 1543 1543 1543 1543 1542 1542 1542 1542 1542 1542 1541 1541 1540 1538
1518 1520 1523 1525 1528 1530 1532 1534 1536 1538 1539 1541 1542 1543 1544 1545 1545 1545 1545 1544 1544 1543 1542 1541 1541 1540 1540 1540 1540 1540 1541 1541 1541 1541 1541 1541 1541 1541 1541 1541 1541 1540 1539 1538
1515 1518 1520 1522 1525 1527 1529 1531 1533 1534 1536 1537 1538 1539 1540 1541 1541 1542 1542 1542 1541 1540 1539 1539 1538 1537 1538 1537 1538 1538 1539 1539 1539 1540 1540 1540 1540 1540 1540 1540 1540 1539 1538 1537
1513 1515 1517 1519 1522 1524 1526 1528 1529 1531 1532 1533 1534 1535 1536 1537 1538 1538 1538 1539 1538 1537 1536 1536 1535 1535 1534 1535 1535 1536 1536 1537 1537 1538 1538 1537 1538 1538 1538 1538 1538 1537 1537 1536
1511 1513 1514 1516 1519 1521 1522 1524 1526 1527 1528 1529 1530 1532 1533 1533 1534 1534 1535 1535 1534 1533 1533 1532 1532 1532 1531 1532 1532 1533 1534 1535 1535 1535 1535 1535 1535 1536 1536 1536 1536 1535 1535 1534
1510 1511 1512 1513 1515 1517 1519 1520 1522 1523 1524 1525 1526 1527 1528 1529 1530 1531 1531 1531 1531 1530 1530 1529 1529 1528 1528 1529 1529 1530 1531 1532 1532 1532 1532 1532 1533 1533 1533 1533 1533 1533 1533 1532
1508 1509 1509 1510 1512 1513 1515 1516 1517 1519 1520 1521 1522 1523 1524 1525 1526 1526 1527 1527 1527 1527 1526 1526 1526 1525 1525 1526 1526 1527 1527 1528 1528 1529 1529 1529 1529 1529 1529 1530 1530 1530 1530 1530
1507 1507 1507 1507 1508 1509 1511 1512 1513 1514 1515 1516 1517 1519 1520 1521 1521 1522 1522 1522 1523 1523 1523 1522 1522 1522 1522 1522 1522 1522 1523 1524 1524 1524 1524 1525 1525 1526 1526 1526 1527 1527 1527 1527